Regional Weather Roundup
Issued by NWS

Home | Current Version | Previous Version | Text Only | Print | Product List | Glossary Off
Versions: 1 2 3 4 5 6 7 8 9 10 11 12 13 14 15 16 17 18 19 20 21 22 23 24 25 26 27 28 29 30 31 32 33 34 35 36 37 38 39 40 41 42 43 44 45 46 47 48 49 50

000
ASUS43 KIND 050559
RWRIN

WEATHER ROUNDUP FOR INDIANA
NATIONAL WEATHER SERVICE INDIANAPOLIS IN
200 AM EDT SUN JUL 05 2015

NOTE: "FAIR" INDICATES FEW OR NO CLOUDS BELOW 12,000 FEET WITH NO
SIGNIFICANT WEATHER AND/OR OBSTRUCTIONS TO VISIBILITY.

* - STATION DOES NOT REPORT WEATHER SUCH AS PRECIPITATION OR FOG.

+ - STATION NOT QUALITY CONTROLLED BY THE NATIONAL WEATHER SERVICE.
    USE DATA WITH CAUTION...ESPECIALLY DEWPOINT AND RELATIVE
    HUMIDITY OBSERVATIONS.

INZ001>003-010>013-019-020-050700-
NORTHWEST INDIANA

CITY           SKY/WX    TMP DP  RH WIND       PRES   REMARKS
MONTICELLO +     N/A     64  64 100 CALM      30.05S FOG
6HR MIN TEMP:  64; 6HR MAX TEMP:  78;

RENSSELAER +   CLEAR     63  63 100 CALM      30.06R FOG

$$

LMZ046-743>745-050700-
SOUTHERN LAKE MICHIGAN

STATION/POSITION TIME  TEMP    WIND        PRES    WAVE
                       AIR SEA DIR/SP/G            HT
                 (UTC) (F)     (DEG/KT/KT) (MB)    (FT)
BURNS HARBOR     0500   70     190/  5/  6 1017.9R
MICHIGAN CITY    0500   68     120/  6/  7   N/A
5NW MICH CITY    0500   65 64  120/  4/  4   N/A     0

$$

INZ004-005-014>016-021>024-050700-
NORTH CENTRAL INDIANA

CITY           SKY/WX    TMP DP  RH WIND       PRES   REMARKS
GOSHEN         CLEAR     61  58  90 CALM      30.06S FOG
6HR MIN TEMP:  60; 6HR MAX TEMP:  74; 6HR PCP: TRACE;

SOUTH BEND     CLEAR     62  57  83 CALM      30.06S
6HR MIN TEMP:  62; 6HR MAX TEMP:  77;


$$

INZ006>009-017-018-025>027-050700-
NORTHEAST INDIANA

CITY           SKY/WX    TMP DP  RH WIND       PRES   REMARKS
ANGOLA *+        N/A     61  59  94 CALM      30.07S
FORT WAYNE     PTCLDY    62  59  90 S3        30.08R
6HR MIN TEMP:  62; 6HR MAX TEMP:  75;


$$

INZ028-029-035-036-043>045-051>053-050700-
WEST CENTRAL INDIANA

CITY           SKY/WX    TMP DP  RH WIND       PRES   REMARKS
CRAWFORDSVL +  CLEAR     58  57  97 CALM      30.06S
6HR MIN TEMP:  58; 6HR MAX TEMP:  74;

GREENCASTLE +  PTCLDY    63  55  77 CALM      30.06S
LAFAYETTE      CLEAR     61  59  93 CALM      30.05S FOG
6HR MIN TEMP:  61; 6HR MAX TEMP:  76;

TERRE HAUTE    PTCLDY    65  63  93 CALM      30.05S
6HR MIN TEMP:  65; 6HR MAX TEMP:  78;


$$

INZ030>032-037>040-046>048-054>057-064-065-050700-
CENTRAL INDIANA

CITY           SKY/WX    TMP DP  RH WIND       PRES   REMARKS
INDIANAPOLIS   PTCLDY    67  59  75 CALM      30.05R HAZE
6HR MIN TEMP:  67; 6HR MAX TEMP:  78; 6HR PCP: TRACE;

-EAGLE CREEK   PTCLDY    66  62  87 CALM      30.06R
6HR MIN TEMP:  66; 6HR MAX TEMP:  78;

KOKOMO *+      CLEAR     63  59  88 CALM      30.07R
6HR MIN TEMP:  63; 6HR MAX TEMP:  79;

MT COMFORT *+  PTCLDY    63 N/A N/A CALM      30.07S
SHELBYVILLE    MOCLDY    65  61  87 CALM      30.05S
6HR MIN TEMP:  65; 6HR MAX TEMP:  79;


$$

INZ033-034-041-042-049-050-058-059-050700-
EAST CENTRAL INDIANA

CITY           SKY/WX    TMP DP  RH WIND       PRES   REMARKS
MUNCIE         PTCLDY    63  60  90 CALM      30.08R FOG
6HR MIN TEMP:  63; 6HR MAX TEMP:  76;


$$

INZ060-061-067>069-081>083-085>088-050700-
SOUTHWEST INDIANA

CITY           SKY/WX    TMP DP  RH WIND       PRES   REMARKS
EVANSVILLE     CLOUDY    73  67  81 N3        30.02S SMOKE
6HR MIN TEMP:  73; 6HR MAX TEMP:  77;

HUNTINGBURG *+ CLOUDY    70  66  88 NE6       30.02F
6HR MIN TEMP:  70; 6HR MAX TEMP:  77;


$$

INZ062-063-066-070>080-084-089>092-050700-
SOUTH CENTRAL AND SOUTHEAST INDIANA

CITY           SKY/WX    TMP DP  RH WIND       PRES   REMARKS
BLOOMINGTON    MOCLDY    65  64  97 CALM      30.05S FOG
6HR MIN TEMP:  65; 6HR MAX TEMP:  78;

MADISON *+     CLOUDY    70  63  78 E3        30.07F

$$




USA.gov is the U.S. government's official web portal to all federal, state and local government web resources and services.